{"data":{"norad_id":63494,"epoch":"2026-09-20T09:53:00.073824Z","epoch_age_seconds":163348,"freshness":"FRESH","line1":"1 63494U 25071B   26263.41180641  .00023971  00000+0  71852-3 0  9992","line2":"2 63494  53.1642 310.4287 0000580  40.5756 319.5290 15.34391953 82635","mean_motion":15.34391953,"eccentricity":5.8e-5,"inclination_deg":53.1642,"raan_deg":310.4287,"arg_perigee_deg":40.5756,"mean_anomaly_deg":319.529,"bstar":0.00071852,"rev_number":8263,"period_min":93.848250258648,"perigee_km":462.33038757031,"apogee_km":463.12392781261,"semimajor_km":6840.8641576915,"source":"CELESTRAK","updated_at":"2026-09-21T09:00:35.013176Z"}}